TimePST,TemperatureF,Dew PointF,Humidity,Sea Level PressureIn,VisibilityMPH,Wind Direction,Wind SpeedMPH,Gust SpeedMPH,PrecipitationIn,Events,Conditions,WindDirDegrees,DateUTC
12:00 AM,46.0,41.0,83,29.90,-9999.0,SSE,6.9,-,N/A,,Unknown,160,2013-02-06 08:00:00
1:00 AM,46.0,41.4,84,29.92,-9999.0,South,8.1,-,N/A,,Unknown,170,2013-02-06 09:00:00
2:00 AM,46.0,40.6,81,29.94,-9999.0,South,5.8,-,N/A,,Unknown,170,2013-02-06 10:00:00
3:00 AM,46.2,40.3,80,29.95,-9999.0,South,5.8,-,N/A,,Unknown,170,2013-02-06 11:00:00
4:00 AM,46,41,76,29.96,,South,5.8,,,,,170,2013-02-06 12:00:00
4:00 AM,45.7,40.8,83,29.96,-9999.0,South,5.8,-,N/A,,Unknown,170,2013-02-06 12:00:00
5:00 AM,45.5,40.6,83,29.99,-9999.0,SSE,8.1,-,N/A,,Unknown,160,2013-02-06 13:00:00
6:00 AM,45.1,40.5,84,29.99,-9999.0,SSE,4.6,-,N/A,,Unknown,160,2013-02-06 14:00:00
7:00 AM,45.5,40.3,82,30.00,-9999.0,SSE,8.1,-,N/A,,Unknown,160,2013-02-06 15:00:00
8:00 AM,45.0,39.9,82,30.01,-9999.0,SSE,5.8,-,N/A,,Unknown,160,2013-02-06 16:00:00
9:00 AM,44.8,39.9,83,30.02,-9999.0,SSE,3.5,-,N/A,,Unknown,150,2013-02-06 17:00:00
10:00 AM,46,40,74,30.03,,SSE,5.8,,,,,150,2013-02-06 18:00:00
10:00 AM,46.4,40.5,80,30.03,-9999.0,SSE,5.8,-,N/A,,Unknown,150,2013-02-06 18:00:00
11:00 AM,46.2,40.1,79,30.02,-9999.0,SSE,4.6,-,N/A,,Unknown,160,2013-02-06 19:00:00
12:00 PM,47.1,39.2,74,30.01,-9999.0,SE,6.9,-,N/A,,Unknown,130,2013-02-06 20:00:00
1:00 PM,47.5,39.0,72,29.99,-9999.0,SSE,4.6,-,N/A,,Unknown,150,2013-02-06 21:00:00
2:00 PM,48.0,38.1,69,29.98,-9999.0,SSE,6.9,-,N/A,,Unknown,160,2013-02-06 22:00:00
3:00 PM,47.1,39.2,74,29.97,-9999.0,SSE,5.8,-,N/A,,Unknown,150,2013-02-06 23:00:00
4:00 PM,46,40,74,29.96,,East,4.6,,,,,90,2013-02-07 00:00:00
4:00 PM,45.5,40.3,82,29.96,-9999.0,East,4.6,-,0.02,,Unknown,90,2013-02-07 00:00:00
5:00 PM,44.4,40.3,85,29.94,-9999.0,ENE,4.6,-,0.02,,Unknown,60,2013-02-07 01:00:00
6:00 PM,44.8,39.7,82,29.92,-9999.0,ENE,6.9,-,N/A,,Unknown,70,2013-02-07 02:00:00
7:00 PM,43.7,40.1,87,29.90,-9999.0,ENE,5.8,-,0.02,,Unknown,70,2013-02-07 03:00:00
8:00 PM,43.0,39.9,89,29.88,-9999.0,NE,4.6,-,0.02,,Unknown,50,2013-02-07 04:00:00
9:00 PM,43.3,39.9,88,29.85,-9999.0,NE,6.9,-,N/A,,Unknown,50,2013-02-07 05:00:00
10:00 PM,43,39,82,29.82,,NE,5.8,,,,,50,2013-02-07 06:00:00
10:00 PM,43.0,39.4,87,29.82,-9999.0,NE,5.8,-,N/A,,Unknown,50,2013-02-07 06:00:00
11:00 PM,43.2,39.0,85,29.81,-9999.0,ENE,6.9,-,N/A,,Unknown,70,2013-02-07 07:00:00